Powrót do katalogu

STARLINK-34893

AktywnyŁącznośćVLEO
NORAD 65752·PAYLOAD·🇺🇸 United States

Wystrzelony Sep 25, 2025 z Cape Canaveral Space Force Station

Loading…

Następne Przeloty (najbliższe 24 godziny)

TLE

ŚwieżeSource: CelesTrak SupGP

Epoka: Sep 14, 2026, 22:30 UTC

1 65752C 25216U   26257.93798611 -.00045225  00000+0 -13357-2 0  2574
2 65752  53.1568 171.8348 0001193  79.0408  36.6292 15.34424829    10

Śledź STARLINK-34893 w czasie rzeczywistym z AllMySat

Download on the App Store